| time (UTC) | temp C | wind direction | speed KPH | gust KPH | rain 1hr cm | rain 24hr cm | rain mn cm | humidity % | barometer mb |
| 20260510190204 | 28 | 155 | 6.4 | 9.7 | 0.00 | 0.15 | 0.03 | 71 | 1014.6 |
| 20260510183205 | 29 | 313 | 4.8 | 8.0 | 0.00 | 0.15 | 0.03 | 69 | 1015.2 |
| 20260510181705 | 28 | 167 | 4.8 | 9.7 | 0.00 | 0.15 | 0.03 | 73 | 1015.5 |
| 20260510180205 | 28 | 123 | 3.2 | 8.0 | 0.00 | 0.15 | 0.03 | 71 | 1015.6 |
| 20260510174704 | 27 | 103 | 4.8 | 8.0 | 0.00 | 0.15 | 0.03 | 74 | 1015.8 |
| 20260510173205 | 26 | 270 | 4.8 | 8.0 | 0.00 | 0.15 | 0.03 | 74 | 1015.9 |
| 20260510171704 | 26 | 58 | 3.2 | 8.0 | 0.00 | 0.15 | 0.03 | 74 | 1015.9 |
| 20260510170204 | 27 | 45 | 4.8 | 9.7 | 0.00 | 0.15 | 0.03 | 71 | 1016.0 |
| 20260510164704 | 26 | 303 | 3.2 | 9.7 | 0.00 | 0.18 | 0.03 | 74 | 1016.1 |
| 20260510163205 | 27 | 28 | 4.8 | 9.7 | 0.00 | 0.38 | 0.03 | 75 | 1016.0 |
| 20260510161704 | 26 | 14 | 4.8 | 9.7 | 0.00 | 0.53 | 0.03 | 76 | 1016.1 |
| 20260510160205 | 26 | 54 | 6.4 | 9.7 | 0.00 | 0.69 | 0.03 | 75 | 1016.0 |
| 20260510154705 | 26 | 112 | 6.4 | 8.0 | 0.00 | 0.94 | 0.03 | 77 | 1015.9 |
| 20260510153204 | 26 | 68 | 6.4 | 9.7 | 0.00 | 1.14 | 0.03 | 78 | 1016.0 |
| 20260510151705 | 25 | 49 | 4.8 | 9.7 | 0.00 | 1.22 | 0.03 | 81 | 1016.0 |
| 20260510144704 | 24 | 45 | 3.2 | 8.0 | 0.00 | 1.60 | 0.03 | 82 | 1016.3 |
| 20260510143204 | 23 | 68 | 3.2 | 8.0 | 0.00 | 1.91 | 0.03 | 85 | 1016.4 |
| 20260510141704 | 21 | 49 | 3.2 | 8.0 | 0.00 | 1.98 | 0.03 | 88 | 1016.4 |
| 20260510140204 | 21 | 112 | 3.2 | 4.8 | 0.00 | 2.01 | 0.03 | 89 | 1016.1 |
| 20260510134704 | 20 | 113 | 3.2 | 4.8 | 0.00 | 2.16 | 0.03 | 90 | 1016.0 |
| 20260510133204 | 20 | 120 | 1.6 | 3.2 | 0.00 | 2.18 | 0.03 | 92 | 1016.0 |
| 20260510131705 | 20 | 115 | 3.2 | 8.0 | 0.00 | 2.21 | 0.03 | 92 | 1015.9 |
| 20260510124704 | 19 | 356 | 3.2 | 8.0 | 0.00 | 2.21 | 0.03 | 93 | 1015.6 |
| 20260510123204 | 18 | 75 | 4.8 | 4.8 | 0.00 | 2.24 | 0.03 | 93 | 1015.4 |
| 20260510121704 | 18 | 60 | 4.8 | 4.8 | 0.00 | 2.26 | 0.03 | 93 | 1015.0 |
| 20260510120204 | 18 | 35 | 3.2 | 4.8 | 0.00 | 2.29 | 0.03 | 93 | 1014.8 |
| 20260510113204 | 18 | 65 | 3.2 | 4.8 | 0.00 | 2.29 | 0.03 | 93 | 1014.4 |
| 20260510111704 | 18 | 45 | 1.6 | 3.2 | 0.00 | 2.29 | 0.03 | 93 | 1014.2 |
| 20260510110204 | 18 | 61 | 1.6 | 3.2 | 0.00 | 2.31 | 0.03 | 93 | 1014.0 |
| 20260510104704 | 18 | 68 | 0.0 | 1.6 | 0.00 | 2.31 | 0.03 | 93 | 1013.7 |
| 20260510103204 | 18 | 53 | 1.6 | 3.2 | 0.00 | 2.31 | 0.03 | 93 | 1013.7 |
| 20260510101704 | 18 | 22 | 3.2 | 3.2 | 0.00 | 2.31 | 0.03 | 93 | 1013.6 |
| 20260510100204 | 18 | 315 | 0.0 | 1.6 | 0.00 | 2.31 | 0.03 | 93 | 1013.4 |
| 20260510094704 | 18 | 338 | 0.0 | 0.0 | 0.03 | 2.31 | 0.03 | 93 | 1012.9 |
| 20260510093204 | 18 | 135 | 0.0 | 1.6 | 0.03 | 2.31 | 0.03 | 93 | 1012.7 |
| 20260510091704 | 18 | 68 | 0.0 | 1.6 | 0.03 | 2.31 | 0.03 | 93 | 1012.7 |
| 20260510090204 | 18 | 68 | 1.6 | 3.2 | 0.03 | 2.31 | 0.03 | 93 | 1012.7 |
| 20260510083204 | 19 | 359 | 3.2 | 4.8 | 0.00 | 2.29 | 0.00 | 93 | 1012.4 |
| 20260510081704 | 19 | 45 | 1.6 | 3.2 | 0.00 | 2.29 | 0.00 | 93 | 1012.4 |
| 20260510080204 | 19 | 44 | 1.6 | 1.6 | 0.00 | 2.29 | 0.00 | 93 | 1012.1 |
| 20260510074704 | 18 | 315 | 1.6 | 1.6 | 0.00 | 2.31 | 0.00 | 92 | 1012.1 |
| 20260510071705 | 19 | 173 | 3.2 | 3.2 | 0.00 | 2.31 | 0.00 | 92 | 1012.0 |
| 20260510070205 | 19 | 277 | 3.2 | 3.2 | 0.00 | 2.31 | 0.00 | 92 | 1011.8 |
| 20260510064705 | 19 | 126 | 1.6 | 3.2 | 0.00 | 2.31 | 0.00 | 92 | 1011.8 |
| 20260510063204 | 19 | 142 | 3.2 | 4.8 | 0.00 | 2.31 | 0.00 | 92 | 1012.0 |
| 20260510061705 | 19 | 131 | 4.8 | 4.8 | 0.00 | 2.31 | 0.00 | 92 | 1011.9 |
| 20260510060205 | 18 | 112 | 3.2 | 3.2 | 0.00 | 2.31 | 0.00 | 92 | 1012.4 |
| 20260510054704 | 18 | 90 | 1.6 | 3.2 | 0.00 | 2.31 | 0.00 | 92 | 1012.6 |
| 20260510053204 | 18 | 45 | 1.6 | 3.2 | 0.00 | 2.31 | 0.00 | 92 | 1012.7 |
| 20260510051704 | 19 | 270 | 0.0 | 1.6 | 0.00 | 2.31 | 0.00 | 92 | 1012.8 |
| 20260510044704 | 20 | 248 | 1.6 | 3.2 | 0.00 | 2.34 | 2.31 | 92 | 1012.7 |
| 20260510043204 | 20 | 277 | 1.6 | 4.8 | 0.00 | 2.34 | 2.31 | 92 | 1012.6 |
| 20260510041704 | 20 | 68 | 1.6 | 1.6 | 0.00 | 2.34 | 2.31 | 91 | 1013.2 |
| 20260510040204 | 20 | 338 | 0.0 | 3.2 | 0.00 | 2.34 | 2.31 | 91 | 1013.1 |
| 20260510034704 | 20 | 202 | 1.6 | 3.2 | 0.00 | 2.34 | 2.31 | 91 | 1013.2 |
| 20260510033204 | 20 | 35 | 0.0 | 1.6 | 0.00 | 2.34 | 2.31 | 91 | 1013.3 |
| 20260510031705 | 20 | 242 | 0.0 | 1.6 | 0.00 | 2.34 | 2.31 | 91 | 1013.0 |
| 20260510024704 | 20 | 270 | 1.6 | 3.2 | 0.00 | 2.34 | 2.31 | 91 | 1012.6 |
| 20260510023204 | 20 | 99 | 1.6 | 3.2 | 0.03 | 2.36 | 2.31 | 91 | 1012.4 |
| 20260510021704 | 20 | 45 | 3.2 | 3.2 | 0.03 | 2.36 | 2.31 | 91 | 1012.4 |
| 20260510020204 | 20 | 1 | 3.2 | 3.2 | 0.05 | 2.36 | 2.31 | 91 | 1012.6 |
| 20260510014704 | 20 | 112 | 0.0 | 3.2 | 0.05 | 2.39 | 2.31 | 91 | 1012.4 |
| 20260510013204 | 20 | 145 | 3.2 | 3.2 | 0.03 | 2.41 | 2.29 | 91 | 1012.5 |
| 20260510011705 | 20 | 202 | 0.0 | 3.2 | 0.03 | 2.41 | 2.29 | 91 | 1012.7 |
| 20260510010205 | 20 | 135 | 3.2 | 3.2 | 0.00 | 2.46 | 2.26 | 90 | 1012.7 |
| 20260510004704 | 20 | 135 | 1.6 | 1.6 | 0.00 | 2.46 | 2.26 | 90 | 1012.8 |
| 20260510003204 | 20 | 229 | 0.0 | 3.2 | 0.03 | 2.49 | 2.26 | 90 | 1012.5 |
| 20260510000204 | 20 | 90 | 1.6 | 8.0 | 0.05 | 2.51 | 2.26 | 90 | 1011.7 |
| 20260509234705 | 20 | 303 | 4.8 | 11.3 | 0.05 | 2.54 | 2.26 | 90 | 1010.6 |
| 20260509231704 | 21 | 135 | 4.8 | 8.0 | 0.03 | 2.51 | 2.24 | 89 | 1011.3 |
| 20260509230204 | 21 | 135 | 3.2 | 3.2 | 0.00 | 2.51 | 2.21 | 89 | 1011.6 |
| 20260509224705 | 21 | 92 | 1.6 | 3.2 | 0.03 | 2.54 | 2.21 | 89 | 1011.9 |
| 20260509223205 | 21 | 79 | 1.6 | 4.8 | 0.03 | 2.57 | 2.21 | 89 | 1011.9 |
| 20260509221705 | 21 | 112 | 0.0 | 3.2 | 0.03 | 2.59 | 2.21 | 90 | 1011.3 |
| 20260509220204 | 21 | 68 | 1.6 | 3.2 | 0.03 | 2.62 | 2.21 | 90 | 1011.5 |
| 20260509214705 | 21 | 270 | 1.6 | 4.8 | 0.00 | 2.59 | 2.18 | 90 | 1011.6 |
| 20260509213205 | 21 | 346 | 1.6 | 4.8 | 0.00 | 2.62 | 2.18 | 89 | 1011.2 |
| 20260509211704 | 21 | 158 | 3.2 | 8.0 | 0.00 | 2.74 | 2.18 | 88 | 1011.4 |
| 20260509210204 | 21 | 270 | 3.2 | 4.8 | 0.00 | 3.07 | 2.18 | 88 | 1011.5 |
| 20260509204705 | 21 | 270 | 1.6 | 3.2 | 0.00 | 3.20 | 2.18 | 87 | 1011.7 |
| 20260509203205 | 21 | 166 | 1.6 | 4.8 | 0.00 | 3.35 | 2.18 | 87 | 1011.5 |
| 20260509201704 | 22 | 314 | 4.8 | 4.8 | 0.00 | 3.35 | 2.18 | 87 | 1011.3 |
| 20260509200204 | 22 | 302 | 3.2 | 8.0 | 0.00 | 3.35 | 2.18 | 85 | 1010.1 |
| 20260509194705 | 21 | 217 | 3.2 | 9.7 | 0.00 | 3.35 | 2.18 | 86 | 1009.4 |
| 20260509193205 | 22 | 91 | 3.2 | 8.0 | 0.00 | 3.35 | 2.18 | 84 | 1009.7 |
| 20260509191704 | 22 | 180 | 8.0 | 9.7 | 0.00 | 3.35 | 2.18 | 84 | 1009.7 |